| time (UTC) | temp F | wind direction | speed knots | gust knots | rain 1hr in | rain 24hr in | rain mn in | humidity % | barometer mb |
| 20260504100501 | 40 | 219 | 0.0 | 0.0 | 0.00 | 0.00 | 0.00 | 88 | 1016.9 |
| 20260504081937 | 41 | 219 | 0.0 | 0.0 | 0.00 | 0.00 | 0.00 | 87 | 1016.8 |
| 20260504081436 | 41 | 219 | 0.0 | 0.0 | 0.00 | 0.00 | 0.00 | 87 | 1016.8 |
| 20260504080934 | 41 | 219 | 0.0 | 1.7 | 0.00 | 0.00 | 0.00 | 87 | 1016.7 |
| 20260504080436 | 41 | 219 | 0.0 | 1.7 | 0.00 | 0.00 | 0.00 | 87 | 1016.8 |
| 20260504080207 | 41 | 219 | 0.0 | 2.6 | 0.00 | 0.00 | 0.00 | 87 | 1016.8 |
| 20260504050408 | 42 | 238 | 0.0 | 0.0 | 0.00 | 0.00 | 0.00 | 80 | 1016.7 |
| 20260504045906 | 42 | 237 | 0.0 | 0.0 | 0.00 | 0.00 | 0.00 | 79 | 1016.7 |
| 20260504045406 | 42 | 237 | 0.0 | 2.6 | 0.00 | 0.00 | 0.00 | 79 | 1016.8 |
| 20260504044901 | 42 | 251 | 0.0 | 2.6 | 0.00 | 0.00 | 0.00 | 79 | 1016.8 |
| 20260504044640 | 42 | 252 | 0.9 | 2.6 | 0.00 | 0.00 | 0.00 | 79 | 1016.7 |
| 20260504043902 | 42 | 252 | 0.0 | 2.6 | 0.00 | 0.00 | 0.00 | 78 | 1016.8 |
| 20260504043401 | 42 | 252 | 0.0 | 0.0 | 0.00 | 0.00 | 0.00 | 76 | 1016.7 |
| 20260504042901 | 42 | 252 | 0.0 | 0.0 | 0.00 | 0.00 | 0.00 | 76 | 1016.5 |
| 20260504042401 | 42 | 252 | 0.0 | 0.0 | 0.00 | 0.00 | 0.00 | 76 | 1016.5 |
| 20260504041901 | 42 | 252 | 0.0 | 0.9 | 0.00 | 0.00 | 0.00 | 75 | 1016.4 |
| 20260504041403 | 42 | 252 | 0.0 | 0.9 | 0.00 | 0.00 | 0.00 | 75 | 1016.4 |
| 20260504040901 | 42 | 252 | 0.0 | 0.9 | 0.00 | 0.00 | 0.00 | 75 | 1016.3 |
| 20260504040402 | 42 | 252 | 0.0 | 1.7 | 0.00 | 0.00 | 0.00 | 75 | 1016.3 |
| 20260504035858 | 43 | 252 | 0.0 | 1.7 | 0.00 | 0.00 | 0.00 | 75 | 1016.3 |
| 20260504035400 | 43 | 252 | 0.0 | 0.0 | 0.00 | 0.00 | 0.00 | 75 | 1016.2 |
| 20260504034859 | 43 | 252 | 0.0 | 0.0 | 0.00 | 0.00 | 0.00 | 74 | 1016.2 |
| 20260504034400 | 43 | 252 | 0.0 | 0.0 | 0.00 | 0.00 | 0.00 | 74 | 1016.3 |
| 20260504033900 | 43 | 252 | 0.0 | 0.0 | 0.00 | 0.00 | 0.00 | 73 | 1016.2 |
| 20260504033400 | 43 | 252 | 0.0 | 0.0 | 0.00 | 0.00 | 0.00 | 73 | 1016.3 |
| 20260504032901 | 43 | 252 | 0.0 | 0.0 | 0.00 | 0.00 | 0.00 | 72 | 1016.3 |
| 20260504032357 | 43 | 252 | 0.0 | 0.0 | 0.00 | 0.00 | 0.00 | 72 | 1016.2 |
| 20260504031856 | 44 | 252 | 0.0 | 0.0 | 0.00 | 0.00 | 0.00 | 72 | 1016.2 |
| 20260504031351 | 44 | 252 | 0.0 | 0.0 | 0.00 | 0.00 | 0.00 | 71 | 1016.1 |
| 20260504030844 | 44 | 252 | 0.0 | 0.0 | 0.00 | 0.00 | 0.00 | 70 | 1016.2 |
| 20260504030340 | 44 | 252 | 0.0 | 0.0 | 0.00 | 0.00 | 0.00 | 70 | 1016.1 |
| 20260504025839 | 44 | 252 | 0.0 | 0.0 | 0.00 | 0.00 | 0.00 | 70 | 1016.1 |
| 20260504025338 | 44 | 252 | 0.0 | 0.0 | 0.00 | 0.00 | 0.00 | 70 | 1016.1 |
| 20260504024836 | 44 | 252 | 0.0 | 0.0 | 0.00 | 0.00 | 0.00 | 69 | 1016.1 |
| 20260504024333 | 44 | 252 | 0.0 | 0.0 | 0.00 | 0.00 | 0.00 | 69 | 1016.2 |
| 20260504023832 | 45 | 252 | 0.0 | 0.0 | 0.00 | 0.00 | 0.00 | 69 | 1016.2 |
| 20260504023601 | 45 | 252 | 0.0 | 0.0 | 0.00 | 0.00 | 0.00 | 69 | 1016.2 |
| 20260504022831 | 45 | 252 | 0.0 | 0.0 | 0.00 | 0.00 | 0.00 | 69 | 1016.1 |
| 20260504022329 | 45 | 252 | 0.0 | 0.0 | 0.00 | 0.00 | 0.00 | 68 | 1016.1 |
| 20260504021829 | 45 | 252 | 0.0 | 0.0 | 0.00 | 0.00 | 0.00 | 67 | 1016.0 |
| 20260504021329 | 45 | 252 | 0.0 | 0.0 | 0.00 | 0.00 | 0.00 | 67 | 1016.0 |
| 20260504021105 | 46 | 252 | 0.0 | 0.0 | 0.00 | 0.00 | 0.00 | 67 | 1016.1 |
| 20260504020329 | 46 | 252 | 0.0 | 0.0 | 0.00 | 0.00 | 0.00 | 67 | 1016.1 |
| 20260504015329 | 46 | 252 | 0.0 | 0.0 | 0.00 | 0.00 | 0.00 | 67 | 1016.0 |
| 20260504014830 | 46 | 252 | 0.0 | 0.0 | 0.00 | 0.00 | 0.00 | 65 | 1016.0 |
| 20260504014329 | 47 | 252 | 0.0 | 0.0 | 0.00 | 0.00 | 0.00 | 64 | 1015.8 |
| 20260504014100 | 47 | 252 | 0.0 | 0.0 | 0.00 | 0.00 | 0.00 | 64 | 1015.8 |
| 20260504013604 | 47 | 252 | 0.0 | 0.0 | 0.00 | 0.00 | 0.00 | 63 | 1015.8 |
| 20260504012830 | 47 | 252 | 0.0 | 0.0 | 0.00 | 0.00 | 0.00 | 64 | 1015.9 |
| 20260504012329 | 48 | 252 | 0.0 | 0.0 | 0.00 | 0.00 | 0.00 | 62 | 1015.9 |
| 20260504011830 | 48 | 252 | 0.0 | 0.0 | 0.00 | 0.00 | 0.00 | 61 | 1015.7 |
| 20260504011334 | 48 | 252 | 0.0 | 0.0 | 0.00 | 0.00 | 0.00 | 62 | 1015.7 |
| 20260504010830 | 49 | 252 | 0.0 | 0.0 | 0.00 | 0.00 | 0.00 | 59 | 1015.6 |
| 20260504010331 | 49 | 252 | 0.0 | 0.0 | 0.00 | 0.00 | 0.00 | 57 | 1015.4 |
| 20260504005830 | 49 | 252 | 0.0 | 0.0 | 0.00 | 0.00 | 0.00 | 56 | 1015.4 |
| 20260504005330 | 50 | 252 | 0.0 | 0.0 | 0.00 | 0.00 | 0.00 | 54 | 1015.3 |
| 20260504004829 | 51 | 252 | 0.0 | 0.0 | 0.00 | 0.00 | 0.00 | 55 | 1015.4 |
| 20260504004611 | 52 | 252 | 0.0 | 0.0 | 0.00 | 0.00 | 0.00 | 53 | 1015.3 |
| 20260504004606 | 51 | 252 | 0.0 | 0.0 | 0.00 | 0.00 | 0.00 | 55 | 1015.2 |
| 20260504003329 | 52 | 252 | 0.0 | 0.0 | 0.00 | 0.00 | 0.00 | 51 | 1015.2 |
| 20260504002843 | 53 | 252 | 0.0 | 0.0 | 0.00 | 0.00 | 0.00 | 47 | 1015.0 |
| 20260504002836 | 53 | 252 | 0.0 | 0.0 | 0.00 | 0.00 | 0.00 | 50 | 1015.0 |
| 20260504001830 | 54 | 252 | 0.0 | 0.0 | 0.00 | 0.00 | 0.00 | 46 | 1014.9 |
| 20260504001612 | 54 | 252 | 0.0 | 0.0 | 0.00 | 0.00 | 0.00 | 44 | 1014.8 |
| 20260504001333 | 54 | 252 | 0.0 | 0.0 | 0.00 | 0.00 | 0.00 | 44 | 1014.8 |
| 20260504000323 | 54 | 252 | 0.0 | 2.6 | 0.00 | 0.00 | 0.00 | 44 | 1014.7 |
| 20260503235817 | 55 | 252 | 0.9 | 2.6 | 0.00 | 0.00 | 0.00 | 43 | 1014.7 |
| 20260503235316 | 55 | 252 | 0.9 | 2.6 | 0.00 | 0.00 | 0.00 | 43 | 1014.6 |
| 20260503235050 | 55 | 252 | 0.9 | 2.6 | 0.00 | 0.00 | 0.00 | 44 | 1014.7 |
| 20260503234312 | 55 | 311 | 0.9 | 2.6 | 0.00 | 0.00 | 0.00 | 43 | 1014.7 |
| 20260503233813 | 56 | 267 | 0.9 | 4.3 | 0.00 | 0.00 | 0.00 | 42 | 1014.5 |
| 20260503233544 | 56 | 271 | 0.9 | 4.3 | 0.00 | 0.00 | 0.00 | 42 | 1014.5 |
| 20260503232810 | 56 | 250 | 0.9 | 5.2 | 0.00 | 0.00 | 0.00 | 41 | 1014.5 |
| 20260503232310 | 56 | 323 | 0.9 | 5.2 | 0.00 | 0.00 | 0.00 | 41 | 1014.4 |
| 20260503231805 | 56 | 266 | 0.9 | 3.5 | 0.00 | 0.00 | 0.00 | 42 | 1014.3 |
| 20260503231308 | 56 | 288 | 1.7 | 4.3 | 0.00 | 0.00 | 0.00 | 41 | 1014.4 |
| 20260503230806 | 57 | 258 | 1.7 | 4.3 | 0.00 | 0.00 | 0.00 | 39 | 1014.4 |
| 20260503230306 | 57 | 334 | 1.7 | 5.2 | 0.00 | 0.00 | 0.00 | 41 | 1014.4 |
| 20260503225806 | 57 | 294 | 1.7 | 5.2 | 0.00 | 0.00 | 0.00 | 40 | 1014.3 |
| 20260503225304 | 57 | 267 | 1.7 | 5.2 | 0.00 | 0.00 | 0.00 | 39 | 1014.3 |
| 20260503224805 | 57 | 263 | 1.7 | 5.2 | 0.00 | 0.00 | 0.00 | 37 | 1014.3 |
| 20260503224303 | 57 | 278 | 1.7 | 9.6 | 0.00 | 0.00 | 0.00 | 39 | 1014.4 |
| 20260503223804 | 57 | 82 | 2.6 | 9.6 | 0.00 | 0.00 | 0.00 | 37 | 1014.3 |
| 20260503223543 | 57 | 338 | 2.6 | 9.6 | 0.00 | 0.00 | 0.00 | 37 | 1014.3 |
| 20260503222801 | 57 | 270 | 3.5 | 20.0 | 0.00 | 0.00 | 0.00 | 37 | 1014.3 |
| 20260503222304 | 57 | 12 | 3.5 | 20.0 | 0.00 | 0.00 | 0.00 | 36 | 1014.3 |
| 20260503221801 | 58 | 295 | 3.5 | 13.0 | 0.00 | 0.00 | 0.00 | 37 | 1014.4 |
| 20260503221302 | 58 | 290 | 2.6 | 9.6 | 0.00 | 0.00 | 0.00 | 37 | 1014.3 |
| 20260503220801 | 58 | 321 | 2.6 | 7.8 | 0.00 | 0.00 | 0.00 | 37 | 1014.4 |
| 20260503220301 | 58 | 310 | 2.6 | 8.7 | 0.00 | 0.00 | 0.00 | 35 | 1014.4 |
| 20260503215801 | 58 | 255 | 2.6 | 8.7 | 0.00 | 0.00 | 0.00 | 35 | 1014.3 |
| 20260503215304 | 58 | 175 | 2.6 | 12.2 | 0.00 | 0.00 | 0.00 | 37 | 1014.3 |
| 20260503214801 | 58 | 355 | 3.5 | 12.2 | 0.00 | 0.00 | 0.00 | 35 | 1014.3 |
| 20260503214301 | 58 | 236 | 3.5 | 12.2 | 0.00 | 0.00 | 0.00 | 35 | 1014.3 |
| 20260503214034 | 58 | 298 | 3.5 | 12.2 | 0.00 | 0.00 | 0.00 | 34 | 1014.4 |
| 20260503213537 | 58 | 341 | 3.5 | 12.2 | 0.00 | 0.00 | 0.00 | 35 | 1014.4 |
| 20260503213036 | 58 | 304 | 5.2 | 12.2 | 0.00 | 0.00 | 0.00 | 36 | 1014.3 |
| 20260503212537 | 58 | 22 | 5.2 | 12.2 | 0.00 | 0.00 | 0.00 | 36 | 1014.3 |
| 20260503211801 | 58 | 340 | 4.3 | 11.3 | 0.00 | 0.00 | 0.00 | 34 | 1014.3 |
| 20260503211302 | 59 | 15 | 2.6 | 7.8 | 0.00 | 0.00 | 0.00 | 36 | 1014.2 |
| 20260503210802 | 59 | 337 | 2.6 | 7.8 | 0.00 | 0.00 | 0.00 | 36 | 1014.3 |
| 20260503210536 | 59 | 236 | 2.6 | 11.3 | 0.00 | 0.00 | 0.00 | 36 | 1014.3 |
| 20260503205802 | 59 | 296 | 3.5 | 11.3 | 0.00 | 0.00 | 0.00 | 36 | 1014.3 |
| 20260503205303 | 59 | 294 | 3.5 | 11.3 | 0.00 | 0.00 | 0.00 | 35 | 1014.3 |
| 20260503205040 | 60 | 319 | 2.6 | 11.3 | 0.00 | 0.00 | 0.00 | 36 | 1014.4 |
| 20260503204802 | 59 | 274 | 3.5 | 11.3 | 0.00 | 0.00 | 0.00 | 36 | 1014.3 |
| 20260503204544 | 60 | 319 | 2.6 | 11.3 | 0.00 | 0.00 | 0.00 | 36 | 1014.4 |
| 20260503204036 | 60 | 292 | 2.6 | 11.3 | 0.00 | 0.00 | 0.00 | 37 | 1014.4 |
| 20260503203301 | 59 | 244 | 3.5 | 16.5 | 0.00 | 0.00 | 0.00 | 36 | 1014.4 |
| 20260503202802 | 59 | 319 | 3.5 | 16.5 | 0.00 | 0.00 | 0.00 | 37 | 1014.4 |
| 20260503202539 | 59 | 302 | 3.5 | 12.2 | 0.00 | 0.00 | 0.00 | 36 | 1014.4 |
| 20260503201801 | 59 | 339 | 2.6 | 12.2 | 0.00 | 0.00 | 0.00 | 38 | 1014.5 |
| 20260503201302 | 58 | 288 | 3.5 | 12.2 | 0.00 | 0.00 | 0.00 | 38 | 1014.6 |
| 20260503200801 | 58 | 302 | 4.3 | 13.9 | 0.00 | 0.00 | 0.00 | 35 | 1014.7 |
| 20260503200301 | 58 | 263 | 4.3 | 13.9 | 0.00 | 0.00 | 0.00 | 36 | 1014.9 |
| 20260503195801 | 58 | 336 | 4.3 | 13.0 | 0.00 | 0.00 | 0.00 | 39 | 1014.7 |
| 20260503195301 | 57 | 317 | 3.5 | 9.6 | 0.00 | 0.00 | 0.00 | 39 | 1014.8 |
| 20260503194802 | 56 | 236 | 3.5 | 12.2 | 0.00 | 0.00 | 0.00 | 40 | 1014.9 |
| 20260503194258 | 56 | 196 | 2.6 | 14.8 | 0.00 | 0.00 | 0.00 | 37 | 1014.8 |
| 20260503193752 | 56 | 333 | 2.6 | 14.8 | 0.00 | 0.00 | 0.00 | 41 | 1015.0 |
| 20260503193247 | 56 | 5 | 4.3 | 14.8 | 0.00 | 0.00 | 0.00 | 37 | 1015.0 |
| 20260503192741 | 57 | 5 | 4.3 | 14.8 | 0.00 | 0.00 | 0.00 | 36 | 1015.1 |
| 20260503192232 | 57 | 319 | 2.6 | 7.0 | 0.00 | 0.00 | 0.00 | 36 | 1015.3 |
| 20260503191733 | 57 | 338 | 3.5 | 19.1 | 0.00 | 0.00 | 0.00 | 39 | 1015.2 |
| 20260503191229 | 57 | 298 | 4.3 | 19.1 | 0.00 | 0.00 | 0.00 | 37 | 1015.1 |
| 20260503190729 | 57 | 278 | 6.1 | 20.0 | 0.00 | 0.00 | 0.00 | 37 | 1015.1 |
| 20260503190231 | 57 | 355 | 6.1 | 20.0 | 0.00 | 0.00 | 0.00 | 37 | 1015.2 |
| 20260503185729 | 58 | 256 | 3.5 | 10.4 | 0.00 | 0.00 | 0.00 | 36 | 1015.3 |
| 20260503185507 | 58 | 281 | 3.5 | 16.5 | 0.00 | 0.00 | 0.00 | 38 | 1015.1 |
| 20260503184729 | 58 | 292 | 5.2 | 16.5 | 0.00 | 0.00 | 0.00 | 38 | 1015.2 |
| 20260503184230 | 58 | 223 | 6.1 | 16.5 | 0.00 | 0.00 | 0.00 | 37 | 1015.2 |
| 20260503183729 | 58 | 298 | 5.2 | 16.5 | 0.00 | 0.00 | 0.00 | 37 | 1015.4 |
| 20260503183504 | 58 | 344 | 4.3 | 9.6 | 0.00 | 0.00 | 0.00 | 36 | 1015.7 |
| 20260503183004 | 58 | 310 | 4.3 | 9.6 | 0.00 | 0.00 | 0.00 | 38 | 1015.7 |
| 20260503182229 | 58 | 322 | 3.5 | 11.3 | 0.00 | 0.00 | 0.00 | 36 | 1015.4 |
| 20260503182003 | 57 | 279 | 3.5 | 11.3 | 0.00 | 0.00 | 0.00 | 41 | 1015.7 |
| 20260503181231 | 57 | 334 | 4.3 | 13.9 | 0.00 | 0.00 | 0.00 | 40 | 1015.4 |
| 20260503180730 | 57 | 281 | 5.2 | 13.9 | 0.00 | 0.00 | 0.00 | 37 | 1015.7 |
| 20260503180512 | 57 | 338 | 5.2 | 13.9 | 0.00 | 0.00 | 0.00 | 38 | 1015.8 |
| 20260503175731 | 56 | 257 | 4.3 | 13.9 | 0.00 | 0.00 | 0.00 | 40 | 1015.7 |
| 20260503175229 | 56 | 312 | 4.3 | 14.8 | 0.00 | 0.00 | 0.00 | 38 | 1015.8 |
| 20260503174729 | 56 | 276 | 5.2 | 14.8 | 0.00 | 0.00 | 0.00 | 38 | 1015.4 |
| 20260503174229 | 56 | 284 | 4.3 | 14.8 | 0.00 | 0.00 | 0.00 | 38 | 1015.7 |
| 20260503173730 | 56 | 286 | 3.5 | 12.2 | 0.00 | 0.00 | 0.00 | 43 | 1015.8 |
| 20260503173230 | 56 | 281 | 3.5 | 12.2 | 0.00 | 0.00 | 0.00 | 40 | 1015.8 |
| 20260503172728 | 55 | 331 | 3.5 | 12.2 | 0.00 | 0.00 | 0.00 | 42 | 1015.9 |
| 20260503172232 | 55 | 250 | 4.3 | 11.3 | 0.00 | 0.00 | 0.00 | 41 | 1016.0 |
| 20260503171729 | 55 | 281 | 4.3 | 9.6 | 0.00 | 0.00 | 0.00 | 42 | 1016.0 |
| 20260503171229 | 55 | 349 | 4.3 | 9.6 | 0.00 | 0.00 | 0.00 | 41 | 1016.2 |
| 20260503170729 | 55 | 355 | 3.5 | 9.6 | 0.00 | 0.00 | 0.00 | 43 | 1016.1 |
| 20260503170229 | 55 | 5 | 3.5 | 18.2 | 0.00 | 0.00 | 0.00 | 45 | 1015.8 |
| 20260503150728 | 49 | 169 | 4.3 | 11.3 | 0.00 | 0.00 | 0.00 | 53 | 1016.5 |
| 20260503150229 | 48 | 355 | 4.3 | 11.3 | 0.00 | 0.00 | 0.00 | 56 | 1016.6 |
| 20260503131231 | 46 | 333 | 6.1 | 12.2 | 0.00 | 0.00 | 0.00 | 58 | 1016.2 |
| 20260503130729 | 46 | 355 | 5.2 | 16.5 | 0.00 | 0.00 | 0.00 | 60 | 1016.3 |
| 20260503130229 | 46 | 346 | 6.1 | 16.5 | 0.00 | 0.00 | 0.00 | 60 | 1016.3 |
| 20260503120220 | 44 | 16 | 4.3 | 12.2 | 0.00 | 0.00 | 0.00 | 65 | 1015.8 |